Temperature
10 10 10 10 10 10 11 11 11 11 11 11 11 11 11 11 11 11 12 12 12 12 12 12 12 12 12 12 12 12 12 11 11 11 11 11 11 11 11 11 11 11 11
9 9 10 10 10 10 10 10 10 10 11 11 11 11 11 11 11 11 11 11 11 11 11 11 11 11 11 11 11 11 11 11 11 11 11 11 11 11 11 11 10 10 10
9 9 9 9 9 9 10 10 10 10 10 10 10 10 10 10 11 11 11 11 11 11 11 11 11 11 11 11 11 11 11 11 11 11 11 11 10 10 10 10 10 10 10
8 8 8 9 9 9 9 9 9 9 9 10 10 10 10 10 10 10 10 10 10 10 10 10 11 11 11 11 10 10 10 10 10 10 10 10 10 10 10 10 10 10 10
8 8 8 8 8 8 9 9 9 9 9 9 9 9 9 9 9 9 10 10 10 10 10 10 10 10 10 10 10 10 10 10 10 10 10 10 10 10 10 10 10 9 9
7 7 7 7 8 8 8 8 8 8 8 8 9 9 9 9 9 9 9 9 9 9 10 9 9 10 10 10 10 9 9 10 10 10 10 10 9 9 9 9 9 9 9
6 6 6 7 7 7 7 7 8 8 8 8 8 8 8 8 8 8 8 9 9 9 9 9 9 9 9 9 9 9 9 9 9 9 9 9 9 9 9 9 9 9 8
6 6 6 6 6 6 7 7 7 7 7 7 7 7 7 7 8 8 8 8 8 8 8 9 9 9 9 9 9 9 9 9 9 9 9 9 9 9 9 9 8 8 8
5 5 5 5 6 6 6 6 6 6 6 6 6 6 6 7 7 7 7 8 8 8 8 8 8 8 8 8 8 9 9 9 9 9 9 9 9 8 8 8 8 8 8
4 5 5 5 5 5 5 5 5 6 6 6 6 6 6 6 6 6 7 7 7 8 8 8 8 8 8 8 8 8 8 8 8 8 8 8 8 8 8 8 8 8 7
4 4 4 4 4 4 5 5 5 5 5 5 5 6 6 6 6 6 6 6 7 7 7 7 7 7 8 8 8 8 8 8 8 8 8 8 8 8 7 7 7 7 7
3 3 3 3 4 4 4 4 4 5 5 5 5 5 5 5 6 6 6 6 6 7 7 7 7 7 7 7 7 7 7 7 8 7 7 7 7 7 7 7 7 7 6
2 3 3 3 3 3 3 4 4 4 4 4 5 5 5 5 5 5 5 5 5 6 6 6 6 7 7 7 7 7 7 7 7 7 7 7 7 7 7 7 6 6 6
1 2 2 2 2 2 3 3 3 4 4 4 4 4 4 4 5 5 5 5 4 5 5 6 6 6 6 6 6 6 6 6 7 7 7 7 7 7 7 6 6 6 6
1 1 1 1 2 2 2 2 3 3 3 3 4 4 4 4 4 4 4 4 5 4 4 5 5 5 6 6 5 6 6 6 6 6 6 6 6 6 6 6 6 6 6
-0 0 0 1 1 1 1 2 2 2 3 3 3 3 3 3 4 4 4 4 4 4 4 4 5 5 5 5 5 5 5 6 6 6 6 6 6 6 6 6 6 6 5
-1 -0 -0 0 0 1 1 1 1 2 2 2 2 3 3 3 3 3 3 3 3 3 4 4 4 4 4 4 5 5 5 5 5 5 5 5 5 5 5 5 5 5 5
-1 -1 -1 -1 -0 -0 0 0 1 1 1 2 2 2 2 3 3 3 3 3 3 3 3 3 3 4 4 4 4 4 4 5 5 5 5 4 4 5 5 5 4 5 5
-2 -2 -2 -1 -1 -1 -0 -0 0 0 1 1 1 1 2 2 2 2 2 2 2 2 3 3 3 3 3 3 3 3 4 4 4 4 4 4 4 4 4 4 4 4 4
-3 -2 -2 -2 -2 -1 -1 -1 -1 -0 -0 0 1 1 1 1 2 2 2 2 2 2 2 2 2 2 2 2 3 3 3 3 3 3 3 3 3 3 3 3 3 3 3
-3 -3 -3 -2 -2 -2 -2 -1 -1 -1 -1 -0 0 0 1 1 1 1 1 2 2 2 2 2 2 2 2 2 2 2 2 2 2 3 3 3 3 3 3 3 3 3 3
-4 -3 -3 -3 -3 -2 -2 -2 -2 -1 -1 -1 -1 -0 0 0 1 1 1 1 1 1 1 1 2 2 2 2 2 2 2 1 1 2 2 2 2 2 2 2 2 2 2
-4 -4 -4 -3 -3 -3 -3 -3 -2 -2 -2 -1 -1 -1 -0 -0 -0 0 0 0 1 1 1 1 1 1 2 2 1 1 1 1 1 1 1 1 1 2 2 2 1 1 1
-5 -4 -4 -4 -4 -3 -3 -3 -3 -2 -2 -2 -2 -1 -1 -1 -1 -0 -0 0 0 0 0 0 1 1 1 1 1 1 1 1 0 0 0 0 1 1 1 1 1 1 1
-5 -5 -5 -4 -4 -4 -4 -3 -3 -3 -3 -2 -2 -2 -2 -1 -1 -1 -1 -0 -0 -0 -0 0 0 0 1 0 0 0 0 -0 -0 -0 -0 -0 0 0 0 0 0 0 0
-6 -6 -5 -5 -5 -5 -4 -4 -4 -4 -3 -3 -3 -2 -2 -2 -2 -2 -1 -1 -1 -1 -0 -0 -0 -0 -0 -0 -0 -0 -0 -1 -1 -1 -1 -1 -1 -1 -1 -0 -0 -0 -0
Wind_Speed
3 3 2 2 2 2 2 2 2 2 3 3 3 4 3 3 4 5 6 8 7 6 6 7 7 7 7 8 8 9 9 9 8 8 8 8 8 8 9 9 10 10 10
3 3 3 3 3 3 2 2 2 2 2 3 3 3 3 3 4 6 6 6 7 6 6 6 6 7 7 7 7 8 9 8 8 8 7 7 7 7 8 9 9 8 8
4 3 3 2 3 2 2 2 3 3 2 2 2 3 3 3 3 4 5 5 6 6 6 6 6 6 6 6 7 8 8 7 7 7 7 7 6 6 7 8 8 7 7
4 3 3 3 3 3 2 2 1 1 1 1 1 2 2 3 3 3 5 5 5 6 6 7 7 6 6 6 6 7 7 6 6 6 6 6 6 6 7 7 7 7 6
3 3 3 3 3 3 2 2 1 1 1 1 1 1 2 2 2 3 4 4 5 6 6 7 7 7 6 6 6 6 6 6 6 6 5 5 5 6 7 7 7 6 5
4 3 2 2 2 2 1 1 1 1 0 0 0 1 1 1 1 2 2 3 4 5 5 5 6 6 6 6 5 5 6 5 5 5 5 5 5 6 6 7 6 6 5
5 4 2 2 2 1 1 0 0 1 1 0 1 1 1 0 1 0 1 2 3 3 4 5 5 5 5 6 5 5 5 5 5 6 6 5 5 6 6 6 6 6 6
5 4 3 2 2 1 1 1 0 0 1 1 1 1 1 1 1 1 1 1 2 2 2 3 4 4 4 4 4 4 4 4 6 6 6 6 5 6 6 6 6 6 6
5 5 4 3 2 1 2 2 2 2 2 2 1 2 2 2 0 1 2 2 2 1 1 2 2 4 5 4 4 4 4 4 5 6 6 5 5 5 5 6 6 6 6
5 5 5 4 3 2 2 3 3 2 3 3 2 2 1 1 2 1 1 1 1 1 1 1 1 2 4 4 4 4 4 5 5 5 6 6 5 5 5 5 6 5 6
5 5 5 4 4 3 3 3 3 4 3 3 2 2 1 1 1 2 2 2 1 1 1 1 2 2 3 4 4 5 6 5 5 5 6 6 6 6 6 6 6 5 5
3 4 5 5 4 3 3 3 4 4 4 4 3 3 2 2 2 2 2 2 2 2 2 1 2 2 3 4 5 5 6 6 6 6 6 6 6 6 5 5 5 5 5
3 4 5 5 4 4 4 4 4 4 4 4 4 4 3 3 3 2 2 2 2 1 1 2 3 4 4 4 4 5 6 6 6 6 6 6 5 5 5 5 4 4 4
4 4 5 5 5 5 5 4 3 4 4 4 5 4 4 3 3 3 3 2 1 1 2 3 1 4 4 4 4 4 5 6 6 6 6 5 5 5 5 5 4 4 3
5 5 5 4 5 5 5 4 3 4 4 4 4 4 4 3 3 3 3 4 4 3 3 3 2 2 3 3 4 4 4 6 6 5 5 5 5 5 5 5 4 4 3
5 5 4 4 5 5 5 4 4 3 3 4 4 4 4 3 3 3 3 3 3 4 3 3 2 2 3 3 3 3 3 5 6 6 6 5 6 5 5 4 4 4 4
5 5 4 4 4 5 5 4 4 4 4 4 4 5 5 4 4 4 3 3 3 3 3 3 1 2 2 2 2 2 2 4 5 6 6 6 6 6 5 4 4 4 4
6 6 5 4 4 5 5 4 5 5 5 5 5 5 5 4 5 4 4 5 4 4 4 4 2 2 2 3 3 3 2 4 4 6 6 6 6 6 6 5 5 5 5
6 6 5 5 5 5 5 5 5 5 5 5 5 6 6 5 5 4 5 5 4 4 3 4 3 2 2 2 3 2 2 2 4 6 7 6 6 6 6 6 5 5 5
6 6 6 5 5 5 5 5 5 5 5 5 5 6 6 6 6 6 6 6 5 4 4 4 4 3 2 2 3 3 1 1 2 3 5 6 6 5 5 6 5 5 6
7 6 6 6 5 5 5 5 5 5 5 5 6 6 6 7 8 7 6 6 6 5 5 5 5 4 3 4 4 3 3 2 1 2 3 3 4 4 5 6 6 6 6
6 5 6 6 6 5 8 9 7 5 5 6 6 5 6 7 8 9 10 9 9 8 7 6 5 6 6 5 4 4 4 3 2 2 2 2 3 3 4 6 6 7 7
6 6 5 6 6 7 10 10 9 5 5 5 6 5 5 5 6 6 7 8 9 11 11 8 7 7 6 7 6 6 5 4 3 3 2 2 2 3 4 6 7 7 6
6 6 6 6 6 7 9 9 9 6 5 5 5 5 5 5 5 5 5 5 6 7 8 7 7 7 6 6 7 6 5 2 1 2 2 2 2 2 3 5 7 8 8
6 6 6 6 6 7 9 9 8 4 4 5 5 5 5 5 7 7 5 5 5 4 5 7 8 8 8 9 7 5 5 4 3 2 2 2 2 1 2 2 6 8 8
7 7 7 6 6 6 8 8 8 3 4 4 4 4 6 7 8 7 5 5 5 4 3 2 3 4 5 7 9 7 7 6 3 3 3 2 2 1 1 2 3 5 6
Wind_Direction
21 29 18 21 4 25 37 356 1 11 18 30 38 60 64 54 73 87 101 112 117 120 125 130 129 128 128 124 129 129 126 124 122 120 114 114 115 114 112 109 107 104 100
16 16 10 13 11 21 357 354 30 24 20 34 30 41 51 52 71 91 103 109 118 120 126 129 129 130 131 134 133 133 132 131 132 130 128 125 124 126 124 118 114 110 106
15 11 2 357 13 13 351 5 36 41 32 37 13 26 46 56 71 98 114 118 117 121 128 130 129 128 131 140 145 141 135 132 137 139 139 139 139 139 137 131 125 120 115
3 6 5 358 360 7 12 10 39 51 32 33 18 6 33 52 66 92 108 117 116 118 129 131 131 130 131 131 140 141 144 140 141 141 142 148 153 153 149 145 138 132 127
344 355 0 353 346 5 5 359 26 34 54 26 8 16 26 37 34 72 90 107 119 121 125 134 137 136 137 140 142 145 147 149 151 151 155 160 162 165 161 155 150 146 140
336 351 352 335 336 350 356 10 35 13 40 103 43 39 17 8 44 57 78 95 115 127 127 136 141 146 150 148 147 151 156 161 169 168 166 167 171 173 167 165 166 163 158
341 344 334 327 327 293 266 283 88 47 320 81 78 43 5 359 115 64 74 90 93 113 129 130 137 146 152 161 154 156 165 175 182 179 171 168 172 177 175 173 174 170 171
333 332 322 307 301 271 253 228 160 244 261 209 151 134 173 300 293 222 150 139 137 104 105 130 139 138 136 145 156 165 178 184 187 183 180 181 184 190 183 181 178 174 168
331 324 314 311 304 279 235 229 212 226 231 250 212 181 178 198 225 247 224 191 163 142 122 103 137 151 152 148 153 166 177 180 184 181 174 172 172 179 184 179 175 178 175
330 324 321 308 294 279 256 243 242 233 217 229 241 241 233 170 168 193 262 234 179 172 174 151 138 153 159 154 160 172 173 169 176 176 174 174 174 177 174 173 180 183 186
327 326 320 312 298 280 263 260 249 231 225 226 225 232 251 295 225 185 224 234 255 235 195 179 177 172 172 165 168 178 181 184 192 195 190 185 182 180 181 176 175 178 178
306 313 313 308 301 293 275 266 257 242 233 228 226 217 202 199 213 204 219 231 238 236 215 189 178 184 182 173 172 174 180 189 203 208 198 190 186 180 171 172 179 190 192
292 288 303 302 300 292 286 278 258 250 243 234 227 228 223 224 206 206 195 229 267 265 202 219 200 195 178 169 171 175 177 188 204 208 200 191 181 170 173 174 183 191 199
284 294 304 302 304 297 288 280 267 256 251 240 238 230 228 223 205 196 193 187 226 264 221 220 220 186 168 159 179 170 179 180 190 200 199 190 176 172 175 176 179 189 201
293 298 301 301 301 297 289 278 262 258 249 242 237 230 230 221 206 205 199 187 187 215 237 211 195 196 171 167 182 180 178 180 179 178 180 179 178 177 175 177 183 189 198
298 293 292 293 294 296 297 283 264 259 254 250 239 231 233 222 206 205 202 209 205 205 232 224 207 203 178 175 187 180 180 184 185 183 179 176 175 175 178 185 193 198 205
303 292 286 282 285 287 290 284 274 257 252 255 246 234 233 228 212 209 208 209 212 202 228 257 244 187 171 163 171 180 191 195 193 190 181 178 178 180 185 194 206 212 217
311 303 294 281 276 280 279 275 280 273 257 254 251 241 234 229 221 213 212 214 214 208 206 226 232 205 202 183 174 175 193 193 190 192 191 191 192 193 195 201 210 213 214
308 307 298 289 281 276 273 269 270 273 265 258 251 244 239 225 225 220 215 213 214 213 202 207 219 210 206 178 162 162 162 184 193 196 200 202 205 206 208 211 213 216 216
303 299 296 290 286 282 275 269 268 269 271 269 263 252 244 229 225 220 221 214 210 205 198 202 207 196 194 179 159 167 184 207 200 198 206 209 210 208 211 216 218 220 221
301 298 297 292 289 285 279 275 264 263 265 267 266 257 249 241 235 229 228 216 209 208 202 207 206 198 196 184 189 185 191 192 219 193 176 202 205 210 220 220 221 223 225
299 297 296 294 287 284 286 284 277 267 264 264 268 266 256 241 238 238 238 230 217 209 205 210 213 205 205 200 189 183 175 174 222 203 179 215 194 202 217 217 225 229 232
302 297 297 296 287 283 284 283 280 272 262 262 262 262 263 250 240 235 238 235 229 226 218 213 218 213 204 198 187 188 189 193 219 191 169 222 208 222 228 228 231 232 235
301 298 295 292 288 286 289 288 287 281 265 260 257 251 251 249 242 235 230 227 229 231 223 220 222 218 211 197 195 193 185 183 187 197 177 218 216 229 231 227 232 235 241
300 296 292 289 288 285 289 292 294 280 274 266 261 252 247 244 244 239 229 225 228 233 229 224 222 213 207 205 193 168 166 174 213 231 203 195 208 240 242 236 231 235 241
293 295 291 283 279 279 287 294 298 279 275 274 266 253 248 251 249 242 232 221 225 225 211 213 199 193 190 193 198 195 186 188 197 219 206 189 192 177 247 251 225 228 237
Height
1532 1533 1534 1535 1535 1535 1536 1537 1538 1539 1541 1541 1542 1543 1545 1546 1547 1547 1548 1549 1550 1551 1552 1553 1554 1555 1557 1558 1559 1560 1561 1562 1562 1563 1564 1565 1565 1566 1567 1568 1568 1569 1569
1531 1532 1532 1533 1534 1534 1535 1535 1536 1537 1538 1539 1540 1541 1543 1544 1545 1545 1546 1547 1549 1550 1551 1552 1553 1554 1555 1556 1557 1559 1560 1560 1561 1562 1563 1563 1564 1565 1566 1567 1567 1568 1569
1529 1530 1530 1531 1532 1532 1533 1533 1534 1535 1536 1537 1538 1539 1540 1542 1543 1543 1544 1545 1546 1548 1549 1550 1551 1552 1553 1554 1556 1557 1558 1559 1560 1561 1561 1562 1563 1564 1564 1565 1566 1567 1568
1527 1528 1528 1529 1529 1530 1530 1531 1532 1533 1533 1534 1535 1536 1538 1539 1540 1541 1542 1543 1544 1546 1547 1548 1549 1550 1551 1553 1554 1555 1556 1557 1558 1559 1560 1561 1561 1562 1563 1564 1565 1565 1566
1525 1526 1526 1526 1527 1527 1528 1529 1529 1530 1531 1532 1533 1534 1535 1536 1538 1539 1540 1541 1542 1544 1545 1546 1547 1548 1549 1551 1552 1553 1554 1555 1556 1557 1558 1559 1559 1560 1561 1562 1563 1564 1564
1522 1523 1523 1524 1524 1525 1525 1526 1527 1528 1529 1530 1530 1531 1533 1534 1535 1536 1538 1539 1540 1541 1542 1544 1545 1546 1547 1549 1550 1551 1552 1553 1554 1555 1556 1557 1557 1558 1559 1560 1561 1561 1562
1520 1520 1520 1521 1521 1521 1522 1523 1524 1525 1526 1527 1528 1528 1530 1531 1532 1533 1535 1536 1537 1539 1540 1541 1543 1544 1545 1546 1547 1548 1549 1550 1551 1552 1553 1554 1555 1556 1557 1557 1558 1559 1560
1517 1517 1517 1517 1518 1518 1519 1520 1521 1521 1523 1525 1526 1526 1527 1529 1529 1530 1532 1533 1535 1536 1537 1539 1540 1541 1542 1543 1544 1546 1547 1547 1548 1549 1550 1551 1552 1553 1554 1555 1556 1557 1557
1514 1514 1514 1514 1514 1515 1515 1516 1518 1518 1520 1522 1523 1525 1525 1525 1526 1527 1529 1530 1531 1533 1534 1536 1537 1538 1540 1541 1542 1543 1544 1545 1546 1546 1547 1548 1549 1550 1551 1552 1553 1554 1555
1510 1511 1511 1511 1511 1512 1512 1513 1514 1515 1517 1518 1520 1521 1523 1523 1525 1525 1526 1527 1528 1529 1531 1532 1534 1535 1536 1538 1539 1540 1541 1542 1543 1544 1544 1545 1546 1547 1548 1549 1550 1551 1552
1507 1507 1507 1507 1508 1508 1509 1509 1510 1512 1513 1514 1515 1517 1519 1520 1521 1522 1522 1523 1524 1526 1527 1529 1530 1532 1533 1534 1535 1536 1538 1539 1540 1541 1542 1543 1543 1544 1545 1546 1547 1548 1549
1502 1503 1503 1503 1504 1504 1505 1505 1506 1507 1509 1510 1511 1513 1514 1515 1516 1518 1518 1519 1520 1522 1523 1525 1527 1528 1529 1531 1532 1533 1534 1536 1537 1538 1539 1540 1541 1541 1542 1543 1544 1545 1546
1498 1498 1499 1499 1499 1500 1500 1501 1502 1503 1504 1505 1506 1508 1510 1511 1513 1514 1515 1516 1517 1518 1519 1521 1523 1524 1525 1527 1528 1529 1531 1532 1533 1534 1535 1536 1537 1538 1539 1540 1541 1542 1543
1494 1494 1494 1494 1495 1495 1496 1497 1497 1498 1499 1501 1502 1503 1505 1506 1508 1510 1511 1513 1513 1514 1515 1516 1518 1519 1521 1522 1524 1525 1527 1528 1529 1531 1532 1533 1534 1535 1536 1537 1537 1538 1539
1490 1490 1489 1490 1490 1491 1491 1492 1492 1493 1494 1495 1497 1498 1499 1501 1502 1505 1507 1508 1510 1510 1510 1512 1514 1515 1516 1518 1520 1521 1522 1524 1525 1527 1528 1529 1530 1531 1533 1533 1534 1535 1536
1486 1485 1485 1485 1485 1486 1486 1487 1488 1488 1489 1490 1492 1493 1494 1496 1497 1499 1501 1503 1505 1506 1506 1507 1509 1511 1512 1514 1515 1516 1518 1520 1521 1523 1524 1525 1526 1527 1529 1530 1531 1531 1532
1481 1481 1480 1480 1480 1481 1481 1482 1483 1484 1484 1485 1486 1488 1489 1491 1492 1494 1496 1498 1500 1501 1501 1502 1505 1506 1508 1509 1510 1512 1513 1515 1517 1519 1520 1521 1522 1523 1524 1526 1527 1527 1528
1477 1476 1476 1475 1475 1476 1476 1477 1477 1478 1479 1480 1481 1482 1484 1485 1486 1488 1490 1492 1494 1496 1497 1498 1499 1501 1503 1504 1506 1508 1509 1511 1512 1514 1515 1516 1518 1519 1520 1521 1522 1523 1524
1472 1472 1471 1470 1470 1471 1471 1471 1472 1473 1473 1474 1476 1477 1478 1480 1481 1482 1484 1486 1489 1490 1492 1493 1494 1495 1498 1500 1501 1503 1504 1506 1508 1509 1511 1512 1513 1515 1516 1517 1518 1519 1520
1468 1467 1466 1466 1466 1465 1466 1466 1467 1467 1468 1469 1470 1471 1472 1474 1475 1477 1479 1481 1483 1484 1486 1487 1489 1490 1492 1494 1496 1497 1499 1501 1502 1504 1506 1507 1509 1510 1511 1512 1513 1514 1515
1464 1463 1462 1461 1461 1460 1460 1461 1461 1462 1463 1463 1464 1465 1467 1468 1470 1472 1473 1475 1477 1478 1480 1482 1483 1484 1486 1488 1490 1492 1494 1495 1497 1499 1500 1502 1504 1505 1506 1507 1508 1509 1510
1460 1459 1457 1457 1456 1456 1456 1456 1457 1457 1457 1458 1458 1459 1461 1462 1464 1466 1467 1469 1471 1473 1474 1476 1477 1478 1480 1483 1485 1487 1488 1490 1491 1494 1495 1497 1499 1500 1501 1502 1503 1504 1505
1455 1454 1453 1452 1451 1451 1451 1451 1451 1452 1452 1452 1453 1454 1455 1456 1458 1459 1461 1463 1465 1467 1469 1470 1471 1472 1474 1477 1479 1481 1483 1484 1486 1488 1490 1491 1493 1494 1496 1497 1499 1499 1500
1451 1449 1448 1448 1447 1446 1446 1446 1446 1447 1447 1447 1447 1448 1449 1450 1452 1453 1455 1456 1458 1460 1462 1464 1466 1468 1470 1472 1474 1476 1477 1480 1482 1484 1485 1486 1488 1489 1491 1492 1493 1494 1495
1446 1445 1444 1443 1442 1442 1442 1442 1442 1442 1441 1441 1442 1443 1443 1444 1446 1448 1449 1450 1452 1454 1456 1458 1460 1462 1464 1466 1468 1470 1472 1474 1475 1477 1479 1481 1482 1484 1485 1486 1488 1489 1489
1442 1440 1439 1438 1438 1437 1437 1437 1437 1437 1437 1436 1437 1437 1438 1439 1440 1442 1443 1444 1445 1447 1450 1451 1454 1456 1458 1460 1462 1465 1466 1468 1470 1471 1474 1476 1477 1479 1479 1480 1482 1483 1484